Location: Most
(50.5133°N, 13.6207°E)
Time: 18:58:06
(UTC+02:00)

ISS - Pass Details

Date: 02 October 2021
Orbit: 418 x 423 km, 51.6° (Epoch: 18 October)

Event Time Altitude Azimuth Distance (km) Brightness Sun altitude
Rises 21:05:31 0° 282° (WNW) 2,367 1.4 -23.3°
Reaches altitude 10° 21:08:14 10° 259° (WSW) 1,500 -0.3 -23.7°
Enters shadow 21:10:02 15° 226° (SW) 1,215 -1.2 -23.9°
